DW1289 Weather Reports


time (UTC)temp
F
wind
direction
speed
knots
gust
knots
rain 1hr
in
rain 24hr
in
rain mn
in
humidity
%
barometer
mb
20260905224016 96 248 1.7 3.5 0.00 0.00 0.00 51 1011.0
20260905223016 97 248 1.7 4.3 0.00 0.00 0.00 50 1010.8
20260905222056 97 248 1.7 5.2 0.00 0.00 0.00 50 1010.9
20260905221036 97 248 1.7 6.1 0.00 0.00 0.00 48 1010.9
20260905220016 98 225 1.7 4.3 0.00 0.00 0.00 48 1010.8
20260905215016 98 225 2.6 6.1 0.00 0.00 0.00 49 1011.1
20260905214016 98 248 1.7 7.8 0.00 0.00 0.00 49 1011.1
20260905213016 98 248 2.6 7.0 0.00 0.00 0.00 47 1011.0
20260905212036 99 248 2.6 7.0 0.00 0.00 0.00 48 1011.1
20260905211016 99 248 1.7 6.1 0.00 0.00 0.00 47 1011.0
20260905210016 99 248 2.6 8.7 0.00 0.00 0.00 48 1011.1
20260905205016 99 248 2.6 7.0 0.00 0.00 0.00 48 1011.1
20260905204016 99 248 0.9 3.5 0.00 0.00 0.00 48 1011.4
20260905203016 99 248 1.7 6.1 0.00 0.00 0.00 49 1011.5
20260905202016 99 248 0.9 6.1 0.00 0.00 0.00 48 1011.7
20260905201016 98 248 1.7 6.1 0.00 0.00 0.00 48 1011.8
20260905200016 98 248 2.6 7.0 0.00 0.00 0.00 49 1011.9
20260905195016 99 248 0.9 3.5 0.00 0.00 0.00 49 1012.1
20260905194016 98 248 1.7 6.1 0.00 0.00 0.00 49 1012.3
20260905193016 98 248 1.7 5.2 0.00 0.00 0.00 49 1012.4
20260905192016 97 225 1.7 4.3 0.00 0.00 0.00 46 1012.6
20260905191036 97 135 1.7 3.5 0.00 0.00 0.00 48 1012.6
20260905190016 97 158 1.7 3.5 0.00 0.00 0.00 47 1013.0
20260905185036 97 248 2.6 6.1 0.00 0.00 0.00 47 1013.1
20260905184016 97 248 1.7 5.2 0.00 0.00 0.00 49 1013.1
20260905183116 97 248 1.7 7.0 0.00 0.00 0.00 50 1013.3
20260905182016 96 248 2.6 7.0 0.00 0.00 0.00 48 1013.4
20260905181016 96 248 2.6 5.2 0.00 0.00 0.00 50 1013.4
20260905180016 95 248 2.6 6.1 0.00 0.00 0.00 51 1013.4
20260905175016 95 248 1.7 7.0 0.00 0.00 0.00 52 1013.5
20260905174016 95 248 1.7 7.0 0.00 0.00 0.00 51 1013.7
20260905173016 95 248 1.7 7.0 0.00 0.00 0.00 52 1013.7
20260905172016 94 248 2.6 8.7 0.00 0.00 0.00 54 1013.9
20260905171136 93 248 1.7 6.1 0.00 0.00 0.00 56 1013.9
20260905170016 93 248 1.7 5.2 0.00 0.00 0.00 55 1014.2
20260905165016 93 68 1.7 6.1 0.00 0.00 0.00 57 1014.4
20260905164036 92 248 1.7 6.1 0.00 0.00 0.00 59 1014.6
20260905163016 91 135 0.9 4.3 0.00 0.00 0.00 60 1014.8
20260905162016 91 68 1.7 5.2 0.00 0.00 0.00 57 1014.8
20260905161016 90 45 1.7 4.3 0.00 0.00 0.00 58 1014.8
20260905160036 90 180 0.9 3.5 0.00 0.00 0.00 59 1014.7
20260905155056 89 113 0.9 4.3 0.00 0.00 0.00 60 1014.8
20260905154016 88 135 0.9 5.2 0.00 0.00 0.00 63 1014.8
20260905153016 87 45 1.7 4.3 0.00 0.00 0.00 63 1014.9
20260905152016 86 270 0.9 3.5 0.00 0.00 0.00 67 1014.9
20260905151016 85 45 1.7 7.8 0.00 0.00 0.00 68 1015.0
20260905150016 85 45 2.6 5.2 0.00 0.00 0.00 69 1015.0
20260905145036 84 45 1.7 7.0 0.00 0.00 0.00 71 1015.2
20260905144036 83 45 1.7 6.1 0.00 0.00 0.00 72 1015.2
20260905143016 82 45 2.6 8.7 0.00 0.00 0.00 73 1015.2
20260905142016 82 68 2.6 7.8 0.00 0.00 0.00 75 1015.1
20260905141016 81 45 3.5 7.8 0.00 0.00 0.00 77 1015.2
20260905140036 80 45 1.7 6.1 0.00 0.00 0.00 79 1015.4
20260905135016 80 45 3.5 10.4 0.00 0.00 0.00 81 1015.6
20260905134016 79 45 3.5 7.8 0.00 0.00 0.00 83 1015.4
20260905133016 79 45 3.5 8.7 0.00 0.00 0.00 83 1015.5
20260905132016 79 45 4.3 10.4 0.00 0.00 0.00 83 1015.8
20260905131036 79 45 2.6 8.7 0.00 0.00 0.00 88 1015.7
20260905130016 79 45 1.7 8.7 0.00 0.00 0.00 90 1016.1
20260905125016 79 0.0 2.6 0.00 0.00 0.00 92 1015.3
20260905124016 78 270 0.9 1.7 0.00 0.00 0.00 92 1015.0
20260905123016 78 0.0 2.6 0.00 0.00 0.00 92 1014.9
20260905122016 77 248 0.9 3.5 0.00 0.00 0.00 92 1015.0
20260905121016 77 0.0 0.0 0.00 0.00 0.00 92 1014.9
20260905120016 77 0.0 0.9 0.00 0.00 0.00 92 1014.8
20260905115016 77 0.0 0.0 0.00 0.00 0.00 92 1014.8
20260905114036 77 0.0 0.9 0.00 0.00 0.00 92 1014.6
20260905113016 77 68 0.9 7.0 0.00 0.00 0.00 92 1014.4
20260905112016 76 45 0.9 7.0 0.00 0.00 0.00 92 1014.3
20260905111016 76 0.0 0.0 0.00 0.00 0.00 92 1013.9
20260905110016 77 0.0 0.0 0.00 0.00 0.00 92 1013.7
20260905105016 77 0.0 0.0 0.00 0.00 0.00 92 1013.4
20260905104016 77 0.0 0.0 0.00 0.00 0.00 92 1013.4
20260905103016 77 0.0 0.0 0.00 0.00 0.00 92 1013.4
20260905102016 77 0.0 1.7 0.00 0.00 0.00 92 1013.5
20260905101016 77 0.0 1.7 0.00 0.00 0.00 91 1013.7
20260905100016 77 0.0 0.0 0.00 0.00 0.00 91 1013.8
20260905095016 77 0.0 0.0 0.00 0.00 0.00 90 1013.7
20260905094036 77 0.0 0.0 0.00 0.00 0.00 90 1013.6
20260905093016 77 0.0 0.0 0.00 0.00 0.00 90 1013.3
20260905092016 77 0.0 0.0 0.00 0.00 0.00 90 1013.3
20260905091036 77 0.0 0.0 0.00 0.00 0.00 90 1013.0
20260905090016 78 0.0 1.7 0.00 0.00 0.00 90 1013.1
20260905085036 78 0 0.9 4.3 0.00 0.00 0.00 90 1013.2
20260905084016 78 0.0 0.0 0.00 0.00 0.00 90 1013.1
20260905083016 78 0.0 0.0 0.00 0.00 0.00 90 1013.0
20260905082036 78 0.0 0.0 0.00 0.00 0.00 89 1013.0
20260905081016 78 0.0 0.0 0.00 0.00 0.00 89 1013.1
20260905080016 78 0.0 2.6 0.00 0.00 0.00 89 1013.2
20260905075016 78 0.0 0.0 0.00 0.00 0.00 89 1013.1
20260905074036 78 0.0 0.0 0.00 0.00 0.00 88 1013.1
20260905073016 78 0.0 0.0 0.00 0.00 0.00 88 1013.3
20260905072016 79 0.0 0.0 0.00 0.00 0.00 88 1013.4
20260905071016 79 0.0 0.0 0.00 0.00 0.00 87 1013.4
20260905070016 79 0.0 0.0 0.00 0.00 0.00 87 1013.4
20260905065016 79 0.0 0.0 0.00 0.00 0.00 87 1013.5
20260905064016 79 0.0 0.0 0.00 0.00 0.00 88 1013.7
20260905063016 79 0.0 0.0 0.00 0.00 0.00 88 1013.9
20260905062036 79 0.0 0.0 0.00 0.00 0.00 87 1014.0
20260905061036 79 0.0 0.0 0.00 0.00 0.00 87 1014.2
20260905060016 80 0.0 0.0 0.00 0.00 0.00 87 1014.2
20260905055016 80 0.0 0.0 0.00 0.00 0.00 86 1014.2
20260905054016 80 0.0 0.0 0.00 0.00 0.00 86 1014.1
20260905053016 80 0.0 0.0 0.00 0.00 0.00 86 1014.2
20260905052016 80 0.0 0.0 0.00 0.00 0.00 85 1014.1
20260905051016 80 0.0 0.0 0.00 0.00 0.00 86 1014.1
20260905050016 80 0.0 0.0 0.00 0.00 0.00 85 1014.2
20260905045016 81 0.0 0.0 0.00 0.00 0.00 84 1014.2
20260905044016 81 0.0 0.0 0.00 0.00 0.00 83 1014.1
20260905043016 81 0.0 0.0 0.00 0.00 0.00 83 1014.1
20260905042016 81 0.0 0.0 0.00 0.00 0.00 83 1014.1
20260905041016 81 0.0 0.0 0.00 0.00 0.00 83 1014.1
20260905040016 81 0.0 0.0 0.00 0.00 0.00 83 1014.1
20260905035016 81 0.0 0.9 0.00 0.00 0.00 83 1014.1
20260905034016 82 0.0 0.0 0.00 0.00 0.00 81 1014.2
20260905033016 82 0.0 0.0 0.00 0.00 0.00 80 1014.2
20260905032016 82 0.0 0.0 0.00 0.00 0.00 79 1014.2
20260905031016 83 0.0 0.0 0.00 0.00 0.00 78 1014.3
20260905030016 83 0.0 0.0 0.00 0.00 0.00 78 1014.3
20260905025036 83 0.0 0.0 0.00 0.00 0.00 78 1014.3
20260905024016 84 0.0 0.0 0.00 0.00 0.00 77 1014.1
20260905023036 84 0.0 0.0 0.00 0.00 0.00 75 1014.0
20260905022016 84 0.0 0.0 0.00 0.00 0.00 74 1013.9
20260905021016 85 0.0 0.0 0.00 0.00 0.00 73 1014.0
20260905020036 85 0.0 0.0 0.00 0.00 0.00 72 1013.7
20260905015056 86 0.0 0.0 0.00 0.00 0.00 71 1013.6
20260905014016 86 0.0 0.0 0.00 0.00 0.00 71 1013.6
20260905013016 87 0.0 0.0 0.00 0.00 0.00 68 1013.4
20260905012016 87 0.0 0.0 0.00 0.00 0.00 67 1013.3
20260905011016 88 0.0 0.0 0.00 0.00 0.00 65 1013.1
20260905010016 89 0.0 0.0 0.00 0.00 0.00 66 1013.1
20260905005016 90 0.0 0.0 0.00 0.00 0.00 64 1013.1
20260905004036 91 0.0 0.0 0.00 0.00 0.00 62 1013.1
20260905003016 92 0.0 0.0 0.00 0.00 0.00 60 1013.2
20260905002016 93 0.0 0.0 0.00 0.00 0.00 59 1013.1
20260905001056 94 0.0 0.0 0.00 0.00 0.00 58 1013.0
20260905000016 94 0.0 0.0 0.00 0.00 0.00 55 1013.0
20260904235016 94 0.0 1.7 0.00 0.00 0.00 54 1013.0
20260904234016 95 248 0.9 2.6 0.00 0.00 0.00 52 1013.0
20260904233016 96 248 1.7 2.6 0.00 0.00 0.00 51 1013.1
20260904232016 97 248 0.9 2.6 0.00 0.00 0.00 49 1013.2
20260904231016 98 270 0.9 2.6 0.00 0.00 0.00 47 1013.2
20260904230016 99 0.0 1.7 0.00 0.00 0.00 47 1013.3
20260904225016 99 248 0.9 2.6 0.00 0.00 0.00 45 1013.3